Weather History for Manor / Austin Executive, TX

Change the Weather History Date:

Monday, December 30, 2013

  Actual Average (KATT) Record (KATT)
Temperature  
Mean Temperature 36 °F 51 °F  
Max Temperature 41 °F 61 °F 83 °F (1951)
Min Temperature 32 °F 41 °F 16 °F (1983)
Degree Days  
Heating Degree Days 28 14  
Month to date heating degree days 384  
Since 1 July heating degree days 596  
Cooling Degree Days 0 0  
Month to date cooling degree days 6  
Year to date cooling degree days 3132  
Moisture  
Dew Point 26 °F    
Average Humidity 68    
Maximum Humidity 87    
Minimum Humidity 53    
Precipitation  
Precipitation 0.00 in 0.07 in 2.00 in (1892)
Month to date precipitation 2.32  
Year to date precipitation 34.24  
Snow  
Snow 0.00 in - - ()
Month to date snowfall  
Since 1 July snowfall  
Snow Depth -    
Sea Level Pressure  
Sea Level Pressure 30.32 in    
Wind  
Wind Speed 11 mph (NNW)    
Max Wind Speed 18 mph    
Max Gust Speed 21 mph    
Visibility 10 miles    
Events      
T = Trace of Precipitation, MM = Missing Value Source: NWS Daily Summary

Daily Weather History Graph

Daily Weather History Graph

Search for Another Location

Airport:

Trip Planner

Search our weather history database for the weather conditions in past years. The results will help you decide how hot, cold, wet, or windy it might be!

Date:

Astronomy

Dec. 30, 2013 Rise Set
Actual Time 7:26 AM CST 5:39 PM CST
Civil Twilight 7:00 AM CST 6:05 PM CST
Nautical Twilight 6:30 AM CST 6:35 PM CST
Astronomical Twilight 6:00 AM CST 7:05 PM CST
Moon 5:21 AM CST (12/30) 4:10 PM CST (12/30)
Length of Visible Light 11h 05m
Length of Day
10h 12m
Waning Crescent, 4% of the Moon is Illuminated
Dec 30
Waning Crescent
Jan 1
New
Jan 7
First Quarter
Jan 15
Full
Jan 23
Last Quarter

Hourly Weather History & Observations

Time (CST) Temp. Windchill Dew Point Humidity Pressure Visibility Wind Dir Wind Speed Gust Speed Precip Events Conditions
12:15 AM 33.8 °F 24.3 °F 28.4 °F 81% 30.29 in 10.0 mi NNW 13.8 mph - N/A   Overcast
12:35 AM 33.8 °F 23.2 °F 28.4 °F 81% 30.27 in 10.0 mi NNW 17.3 mph 20.7 mph N/A   Overcast
12:55 AM 32.0 °F 21.6 °F 28.4 °F 87% 30.27 in 10.0 mi NNW 15.0 mph - N/A   Overcast
1:15 AM 32.0 °F 21.2 °F 28.4 °F 87% 30.27 in 10.0 mi NNW 16.1 mph - N/A   Overcast
1:35 AM 33.8 °F 23.9 °F 28.4 °F 81% 30.27 in 10.0 mi NNW 15.0 mph - N/A   Overcast
1:55 AM 33.8 °F 24.8 °F 28.4 °F 81% 30.28 in 10.0 mi NNW 12.7 mph - N/A   Overcast
2:15 AM 33.8 °F 24.8 °F 28.4 °F 81% 30.28 in 10.0 mi NNW 12.7 mph - N/A   Overcast
2:35 AM 33.8 °F 22.8 °F 26.6 °F 75% 30.27 in 10.0 mi NNW 18.4 mph - N/A   Overcast
2:55 AM 33.8 °F 24.8 °F 26.6 °F 75% 30.26 in 10.0 mi NNW 12.7 mph - N/A   Overcast
3:15 AM 33.8 °F 24.3 °F 26.6 °F 75% 30.26 in 10.0 mi NNW 13.8 mph - N/A   Overcast
3:35 AM 33.8 °F 24.3 °F 26.6 °F 75% 30.26 in 10.0 mi NNW 13.8 mph - N/A   Overcast
3:55 AM 33.8 °F 23.9 °F 26.6 °F 75% 30.25 in 10.0 mi NNW 15.0 mph - N/A   Overcast
4:15 AM 33.8 °F 23.9 °F 26.6 °F 75% 30.26 in 10.0 mi NNW 15.0 mph - N/A   Overcast
4:35 AM 33.8 °F 23.5 °F 26.6 °F 75% 30.25 in 10.0 mi NNW 16.1 mph - N/A   Overcast
4:55 AM 33.8 °F 25.3 °F 26.6 °F 75% 30.26 in 10.0 mi NNW 11.5 mph - N/A   Overcast
5:15 AM 33.8 °F 24.3 °F 26.6 °F 75% 30.26 in 10.0 mi NNW 13.8 mph - N/A   Overcast
5:35 AM 33.8 °F 24.8 °F 26.6 °F 75% 30.26 in 10.0 mi NNW 12.7 mph - N/A   Overcast
5:55 AM 33.8 °F 24.3 °F 24.8 °F 70% 30.26 in 10.0 mi NNW 13.8 mph 18.4 mph N/A   Overcast
6:15 AM 33.8 °F 24.8 °F 24.8 °F 70% 30.27 in 10.0 mi NNW 12.7 mph - N/A   Overcast
6:35 AM 33.8 °F 25.3 °F 24.8 °F 70% 30.28 in 10.0 mi North 11.5 mph - N/A   Overcast
6:55 AM 33.8 °F 24.3 °F 24.8 °F 70% 30.29 in 10.0 mi NNW 13.8 mph 18.4 mph N/A   Overcast
7:15 AM 33.8 °F 24.8 °F 24.8 °F 70% 30.30 in 10.0 mi NNW 12.7 mph - N/A   Overcast
7:35 AM 33.8 °F 25.3 °F 24.8 °F 70% 30.31 in 10.0 mi NNW 11.5 mph - N/A   Overcast
7:55 AM 33.8 °F 25.8 °F 24.8 °F 70% 30.31 in 10.0 mi NNW 10.4 mph - N/A   Overcast
8:15 AM 33.8 °F 25.8 °F 24.8 °F 70% 30.33 in 10.0 mi NNW 10.4 mph - N/A   Overcast
8:35 AM 33.8 °F 24.8 °F 24.8 °F 70% 30.34 in 10.0 mi NNW 12.7 mph - N/A   Overcast
8:55 AM 33.8 °F 24.8 °F 24.8 °F 70% 30.36 in 10.0 mi NNW 12.7 mph - N/A   Overcast
9:15 AM 33.8 °F 25.3 °F 23.0 °F 65% 30.36 in 10.0 mi North 11.5 mph - N/A   Partly Cloudy
9:35 AM 33.8 °F 24.8 °F 23.0 °F 65% 30.37 in 10.0 mi North 12.7 mph - N/A   Clear
9:55 AM 33.8 °F 24.8 °F 23.0 °F 65% 30.38 in 10.0 mi North 12.7 mph - N/A   Clear
10:15 AM 33.8 °F 25.3 °F 23.0 °F 65% 30.37 in 10.0 mi North 11.5 mph - N/A   Clear
10:35 AM 33.8 °F 24.3 °F 23.0 °F 65% 30.37 in 10.0 mi North 13.8 mph - N/A   Clear
10:55 AM 35.6 °F 26.6 °F 23.0 °F 60% 30.37 in 10.0 mi NNW 13.8 mph - N/A   Clear
11:15 AM 35.6 °F 26.2 °F 23.0 °F 60% 30.36 in 10.0 mi NNW 15.0 mph - N/A   Clear
11:35 AM 35.6 °F 27.5 °F 23.0 °F 60% 30.35 in 10.0 mi NNW 11.5 mph - N/A   Clear
11:55 AM 35.6 °F 27.5 °F 23.0 °F 60% 30.34 in 10.0 mi North 11.5 mph - N/A   Clear
12:15 PM 37.4 °F 31.4 °F 24.8 °F 60% 30.33 in 10.0 mi North 8.1 mph - N/A   Clear
12:35 PM 37.4 °F 31.4 °F 24.8 °F 60% 30.33 in 10.0 mi North 8.1 mph - N/A   Clear
12:55 PM 37.4 °F 32.1 °F 24.8 °F 60% 30.33 in 10.0 mi North 6.9 mph - N/A   Clear
1:15 PM 37.4 °F 32.1 °F 24.8 °F 60% 30.32 in 10.0 mi NNW 6.9 mph - N/A   Clear
1:35 PM 39.2 °F 32.5 °F 24.8 °F 56% 30.30 in 10.0 mi North 10.4 mph - N/A   Clear
1:55 PM 39.2 °F 32.5 °F 24.8 °F 56% 30.29 in 10.0 mi North 10.4 mph - N/A   Clear
2:15 PM 39.2 °F 32.5 °F 24.8 °F 56% 30.28 in 10.0 mi North 10.4 mph - N/A   Clear
2:35 PM 39.2 °F 33.6 °F 24.8 °F 56% 30.29 in 10.0 mi North 8.1 mph - N/A   Clear
2:55 PM 39.2 °F 34.2 °F 24.8 °F 56% 30.30 in 10.0 mi North 6.9 mph - N/A   Clear
3:15 PM 39.2 °F 34.2 °F 24.8 °F 56% 30.30 in 10.0 mi North 6.9 mph - N/A   Clear
3:35 PM 41.0 °F 36.4 °F 24.8 °F 53% 30.29 in 10.0 mi NNW 6.9 mph - N/A   Clear
3:55 PM 41.0 °F 37.1 °F 24.8 °F 53% 30.29 in 10.0 mi NNW 5.8 mph - N/A   Clear
4:15 PM 41.0 °F 35.8 °F 24.8 °F 53% 30.29 in 10.0 mi North 8.1 mph - N/A   Clear
4:35 PM 41.0 °F 36.4 °F 26.6 °F 57% 30.30 in 10.0 mi North 6.9 mph - N/A   Clear
4:55 PM 41.0 °F 39.0 °F 26.6 °F 57% 30.30 in 10.0 mi North 3.5 mph - N/A   Clear
5:15 PM 41.0 °F - 26.6 °F 57% 30.30 in 10.0 mi Calm Calm - N/A   Clear
5:35 PM 39.2 °F 37.0 °F 26.6 °F 61% 30.30 in 10.0 mi ENE 3.5 mph - N/A   Clear
5:55 PM 39.2 °F - 26.6 °F 61% 30.31 in 10.0 mi Calm Calm - N/A   Clear
6:15 PM 39.2 °F - 26.6 °F 61% 30.32 in 10.0 mi Calm Calm - N/A   Clear
6:35 PM 39.2 °F - 28.4 °F 65% 30.33 in 10.0 mi Calm Calm - N/A   Clear
6:55 PM 39.2 °F - 28.4 °F 65% 30.32 in 10.0 mi Calm Calm - N/A   Clear
7:15 PM 37.4 °F - 28.4 °F 70% 30.34 in 10.0 mi Calm Calm - N/A   Clear
7:35 PM 37.4 °F - 28.4 °F 70% 30.35 in 10.0 mi Calm Calm - N/A   Clear
7:55 PM 37.4 °F - 28.4 °F 70% 30.35 in 10.0 mi Calm Calm - N/A   Clear
8:15 PM 37.4 °F - 28.4 °F 70% 30.36 in 10.0 mi Calm Calm - N/A   Clear
8:35 PM 37.4 °F - 28.4 °F 70% 30.36 in 10.0 mi Calm Calm - N/A   Clear
8:55 PM 37.4 °F - 28.4 °F 70% 30.37 in 10.0 mi Calm Calm - N/A   Clear
9:15 PM 37.4 °F - 28.4 °F 70% 30.38 in 10.0 mi Calm Calm - N/A   Clear
9:35 PM 37.4 °F 32.8 °F 28.4 °F 70% 30.37 in 10.0 mi NNE 5.8 mph - N/A   Clear
9:55 PM 37.4 °F 34.9 °F 28.4 °F 70% 30.40 in 10.0 mi NNW 3.5 mph - N/A   Clear
10:15 PM 37.4 °F 34.9 °F 28.4 °F 70% 30.40 in 10.0 mi North 3.5 mph - N/A   Clear
10:35 PM 35.6 °F - 30.2 °F 81% 30.40 in 10.0 mi Calm Calm - N/A   Clear
10:55 PM 37.4 °F - 28.4 °F 70% 30.41 in 10.0 mi Calm Calm - N/A   Clear
11:15 PM 37.4 °F - 28.4 °F 70% 30.40 in 10.0 mi Calm Calm - N/A   Clear
11:35 PM 37.4 °F - 28.4 °F 70% 30.41 in 10.0 mi Calm Calm - N/A   Clear
11:55 PM 35.6 °F - 28.4 °F 75% 30.41 in 10.0 mi Calm Calm - N/A   Clear